Hourly Data Report for April 22, 2017

All times are specified in Local Standard Time (LST). Add 1 hour to adjust for Daylight Saving Time where and when it is observed.

KLEEFELD (MAFRI)
MANITOBA

49°31'04.000" N
96°54'04.000" W
246.50 m
5021500
71646
PTG

Related Data

No related data is available for this station

Download Data

Hourly Data (April 2017)
Hourly Data Report for April 22, 2017
Temp Definition
°C
Dew Point Temp Definition
°C
Rel Hum Definition
%
Wind Dir Definition
10's deg

Wind Spd Definition
km/h
Visibility Definition
km
Stn Press Definition
kPa
Hmdx Definition


Wind Chill Definition


Weather Definition


TIME
00:00 7.2 2.8 74 21 12   99.12     LegendNANA
01:00 4.5 0.7 77 32 8   99.17     LegendNANA
02:00 5.2 2.9 85 36 12   99.19     LegendNANA
03:00 4.0 2.4 89 1 6   99.18     LegendNANA
04:00 4.5 3.3 92 35 11   99.18     LegendNANA
05:00 4.9 3.8 93 36 15   99.19     LegendNANA
06:00 4.6 3.3 91 36 18   99.23     LegendNANA
07:00 3.8 2.4 90 35 19   99.27     LegendNANA
08:00 2.4 0.8 89 35 19   99.32     LegendNANA
09:00 0.4 -0.8 92 35 14   99.40     LegendNANA
10:00 0.0 -0.9 93 35 17   99.43   -5 LegendNANA
11:00 0.1 -0.8 94 35 16   99.49     LegendNANA
12:00 0.5 -0.4 93 36 22   99.47     LegendNANA
13:00 0.5 -0.5 93 35 22   99.53     LegendNANA
14:00 1.5 0.0 90 36 28   99.50     LegendNANA
15:00 2.1 0.5 90 1 27   99.46     LegendNANA
16:00 2.3 -3.1 67 36 27   99.49     LegendNANA
17:00 2.1 -3.2 68 36 25   99.49     LegendNANA
18:00 1.2 -3.9 69 2 26   99.48     LegendNANA
19:00 0.4 -4.9 67 1 26   99.52     LegendNANA
20:00 -0.8 -5.4 71 2 22   99.54   -7 LegendNANA
21:00 -1.2 -5.9 71 1 24   99.58   -7 LegendNANA
22:00 -1.8 -7.6 64 36 19   99.61   -7 LegendNANA
23:00 -2.3 -8.1 64 36 16   99.63   -7 LegendNANA

Notes on Data Quality.

Legend

  • E = Estimated
  • M = Missing
  • NA = Not Available
  • ‡ = Partner data that is not subject to review by the National Climate Archives
Date modified: